Hilo, HI

1:49 AM HST on June 26, 2017 (GMT -1000)
Hilo International

Weather History for PHTO - January, 2014

Change the Weather History Date:

Saturday, January 18, 2014

  Actual Average Record
Temperature  
Mean Temperature 73 °F 71 °F  
Max Temperature 81 °F 79 °F 88 °F (1974)
Min Temperature 64 °F 64 °F 58 °F (2009)
Degree Days  
Heating Degree Days 0 0  
Month to date heating degree days 0 0  
Since 1 July heating degree days 0 0  
Cooling Degree Days 8 6  
Month to date cooling degree days 129 119  
Year to date cooling degree days 129 119  
Growing Degree Days 22 (Base 50)    
Moisture  
Dew Point 65 °F    
Average Humidity 82    
Maximum Humidity 100    
Minimum Humidity 64    
Precipitation  
Precipitation 0.00 in 0.28 in 5.08 in (2002)
Month to date precipitation 1.20 4.98  
Year to date precipitation 1.20 4.98  
Snow  
Snow 0.00 in - - ()
Month to date snowfall 0.0  
Since 1 July snowfall 0.0  
Snow Depth 0.00 in    
Sea Level Pressure  
Sea Level Pressure 30.00 in    
Wind  
Wind Speed 5 mph (SW)    
Max Wind Speed 12 mph    
Max Gust Speed 15 mph    
Visibility 10 miles    
Events      
T = Trace of Precipitation, MM = Missing Value Source: NWS Daily Summary

Daily Weather History Graph

Daily Weather History Graph

Search for Another Location

Airport or City:

Trip Planner

Search our weather history database for the weather conditions in past years. The results will help you decide how hot, cold, wet, or windy it might be!

Date:

Astronomy

Jan. 18, 2014 Rise Set
Actual Time 6:57 AM HST 6:04 PM HST
Civil Twilight 6:34 AM HST 6:27 PM HST
Nautical Twilight 6:07 AM HST 6:54 PM HST
Astronomical Twilight 5:40 AM HST 7:21 PM HST
Moon 8:28 PM HST (1/18) 8:27 AM HST (1/18)
Length of Visible Light 11h 53m
Length of Day
11h 06m
Waning Gibbous, 94% of the Moon is Illuminated
Jan 18
Waning Gibbous
Jan 23
Last Quarter
Jan 30
New
Feb 6
First Quarter
Feb 14
Full

Hourly Weather History & Observations

Time (HST) Temp. Heat Index Dew Point Humidity Pressure Visibility Wind Dir Wind Speed Gust Speed Precip Events Conditions
12:53 AM 69.1 °F - 68.0 °F 96% 30.02 in 10.0 mi Calm Calm - N/A   Mostly Cloudy
1:53 AM 69.1 °F - 66.9 °F 93% 30.01 in 10.0 mi Calm Calm - N/A   Mostly Cloudy
2:53 AM 66.9 °F - 66.0 °F 97% 30.00 in 10.0 mi WSW 4.6 mph - N/A   Scattered Clouds
3:53 AM 66.0 °F - 64.0 °F 93% 29.99 in 10.0 mi WSW 8.1 mph - N/A   Partly Cloudy
4:53 AM 64.9 °F - 60.1 °F 84% 30.01 in 10.0 mi SW 6.9 mph - N/A   Partly Cloudy
5:53 AM 64.9 °F - 57.9 °F 78% 30.01 in 10.0 mi SW 8.1 mph - N/A   Partly Cloudy
6:53 AM 64.0 °F - 57.9 °F 80% 30.02 in 10.0 mi WSW 8.1 mph - N/A   Partly Cloudy
7:53 AM 66.9 °F - 57.9 °F 73% 30.04 in 10.0 mi SW 8.1 mph - N/A   Partly Cloudy
8:53 AM 73.9 °F - 61.0 °F 64% 30.04 in 10.0 mi WSW 4.6 mph - N/A   Clear
9:53 AM 77.0 °F - 66.0 °F 69% 30.05 in 10.0 mi SSE 3.5 mph - N/A   Partly Cloudy
10:53 AM 78.1 °F - 66.9 °F 68% 30.04 in 10.0 mi Calm Calm - N/A   Scattered Clouds
11:53 AM 80.1 °F 82.7 °F 68.0 °F 67% 30.01 in 10.0 mi NNE 11.5 mph - N/A   Partly Cloudy
12:53 PM 79.0 °F - 68.0 °F 69% 29.98 in 10.0 mi NE 10.4 mph - N/A   Partly Cloudy
1:53 PM 79.0 °F - 66.9 °F 66% 29.95 in 10.0 mi NE 9.2 mph - N/A   Partly Cloudy
2:53 PM 78.1 °F - 68.0 °F 71% 29.94 in 10.0 mi ENE 8.1 mph - N/A   Scattered Clouds
3:53 PM 77.0 °F - 66.9 °F 71% 29.94 in 10.0 mi ENE 3.5 mph - N/A   Scattered Clouds
4:53 PM 75.0 °F - 66.9 °F 76% 29.95 in 10.0 mi ENE 4.6 mph - N/A   Mostly Cloudy
5:53 PM 73.9 °F - 66.9 °F 79% 29.97 in 10.0 mi Calm Calm - N/A   Scattered Clouds
6:53 PM 71.1 °F - 66.9 °F 87% 29.99 in 10.0 mi Calm Calm - N/A   Partly Cloudy
7:53 PM 70.0 °F - 68.0 °F 93% 30.00 in 10.0 mi South 3.5 mph - N/A   Mostly Cloudy
8:50 PM 69.8 °F - 66.2 °F 88% 30.00 in 10.0 mi Calm Calm - N/A   Mostly Cloudy
8:53 PM 70.0 °F - 66.9 °F 90% 30.00 in 10.0 mi Calm Calm - N/A   Mostly Cloudy
9:16 PM 69.1 °F - 66.9 °F 93% 30.00 in 10.0 mi Calm Calm - N/A   Scattered Clouds
9:53 PM 66.9 °F - 66.0 °F 97% 30.00 in 10.0 mi Calm Calm - N/A   Clear
10:32 PM 66.9 °F - 66.0 °F 97% 29.99 in 10.0 mi Calm Calm - N/A   Mostly Cloudy
10:53 PM 68.0 °F - 66.9 °F 96% 29.98 in 10.0 mi SW 4.6 mph - N/A   Overcast
11:53 PM 70.0 °F - 66.9 °F 90% 29.98 in 10.0 mi SW 5.8 mph - N/A   Overcast